Location: Brunsbüttel
(52.3892°N, 10.6138°E)
Time: 20:11:00
(UTC+00:00)

Cosmos 1455 - Pass Details

Date: 19 May 2025
Orbit: 324 x 333 km, 82.5° (Epoch: 20 June)

Event Time Altitude Azimuth Distance (km) Brightness Sun altitude
Rises 23:44:42 0° 349° (N) 2,169 6.8 -17.3°
Reaches altitude 10° 23:46:40 10° 350° (N) 1,313 5.4 -17.3°
Maximum altitude 23:49:31 86° 80° (E) 349 1.2 -17.2°
Enters shadow 23:49:44 73° 156° (SSE) 363 1.2 -17.2°
